Zurück zum Katalog

SL-14 DEB

AktivPO
NORAD 19230·DEBRIS·🇷🇺 Russia

Gestartet Oct 26, 1978 von Plesetsk Cosmodrome

Loading…

Nächste Überflüge (nächste 24 Stunden)

TLE

AktuellSource: Space-Track

Epoche: Sep 14, 2026, 03:10 UTC

1 19230U 78100Z   26257.13204203  .00000055  00000-0  57680-3 0  9997
2 19230  82.5353 310.0338 0017590  75.8315 311.8500 11.98787903677003

Verfolge SL-14 DEB in Echtzeit mit AllMySat

Download on the App Store